Weather in Ridder

Kazakhstan     50°20′20″N   83°30′25″E
temp.,
°C
wind,
m/s
gust,
m/s
humid.,
%
clouds,
%
prec.,
mm/h
press.,
hPa
HPBL,
m
11 may, tue
tue1100:00+7se3383100 4.6 100833
03:00+6s2286100 0.3 100817
06:00+7ssw119089 0.9 100957
09:00+8wsw338775 1.4 1009524
12:00+9w447297 2.4 10101140
15:00+7wnw3386100 0.3 1012605
18:00+7nnw2478100 0.6 1013739
21:00+4n218213 0.1 101514
12 may, wed
wed1200:00+3nne11778 0.1 101614
03:00+2ne11789 0.0 101612
06:00+3ne117699 0.0 101631
09:00+7nw3362100 0.1 10151101
12:00+8wnw3465100 0.9 10151185
15:00+7nw247876 2.0 1016535
18:00+8nnw347233 3.6 1016717
21:00+3n22915 0.4 101917
13 may, thu
thu1300:00+3ne22905 0.4 101918
03:00+2ne22905 0.0 101918
06:00+4ene22835 0.0 101948
09:00+8nw226623 0.0 1017771
12:00+11wnw3356100 0.7 10151604
15:00+9w3463100 0.3 10151072
18:00+7wnw3374100 0.3 1016437
21:00+5wnw1285100 0.1 1016140
14 may, fri
fri1400:00+4wsw1296100 2.6 1017389
03:00+4w239797 1.9 1016259
06:00+4nw2397100 2.0 1017397
09:00+4nw3395100 0.4 1018562
12:00+6nnw238672 0.7 1019591
15:00+9nnw346599 0.3 10181234
18:00+9n246415 0.3 10191077
21:00+4ne22815 0.0 102320
15 may, sat
sat1500:00+2ene33845 0.0 102435
03:00+1ene33795 0.0 102536
06:00+3ene33735 0.0 102567
09:00+9nne22469 0.0 1023577
12:00+13nnw33375 0.0 10221212
15:00+15nw23373 0.0 10201621
18:00+14wnw23484 0.0 1020960
21:00+8se11725 0.0 102210